Location: Larrial
(48.2758°N, 4.5331°W)
Time: 16:45:01
(UTC+00:00)

AAUSAT CUBESAT 2 - Pass Details

Date: 07 December 2021
Orbit: 572 x 586 km, 97.5° (Epoch: 16 January)

Event Time Altitude Azimuth Distance (km) Brightness Sun altitude
Rises 05:41:09 0° 12° (NNE) 2,800 ? -21.3°
Reaches altitude 10° 05:43:18 10° 11° (N) 1,899 ? -20.9°
Maximum altitude 05:47:25 80° 284° (WNW) 594 ? -20.3°
Drops below altitude 10° 05:51:31 10° 198° (SSW) 1,892 ? -19.6°
Sets 05:53:40 0° 198° (SSW) 2,789 ? -19.3°
